Location: Melizzano
(41.1500°N, 14.5000°E)
Time: 13:16:42
(UTC+00:00)

ARIANE 5 R/B - Pass Details

Date: 11 May 2021
Orbit: 620 x 656 km, 98.1° (Epoch: 13 June)

Event Time Altitude Azimuth Distance (km) Brightness Sun altitude
Exits shadow 19:14:50 12° 96° (E) 1,860 4.5 -11.4°
Maximum altitude 19:16:55 16° 64° (ENE) 1,624 4.4 -11.7°
Drops below altitude 10° 19:19:34 10° 26° (NNE) 1,995 5.3 -12.1°
Sets 19:22:28 0° 5° (N) 2,907 6.5 -12.5°
